Weather History for KICR - July, 2014

Change the Weather History Date:

Thursday, July 31, 2014

  Actual Average Record
Temperature  
Mean Temperature 72 °F 76 °F  
Max Temperature 89 °F 89 °F 103 °F (2012)
Min Temperature 55 °F 64 °F 55 °F (2014)
Degree Days  
Heating Degree Days 0 0  
Month to date heating degree days 12 0  
Since 1 June heating degree days 49 59  
Since 1 July heating degree days 12 5  
Cooling Degree Days 7 12  
Month to date cooling degree days 286 331  
Year to date cooling degree days 484 506  
Since 1 June cooling degree days 403 476  
Growing Degree Days 21 (Base 50)    
Moisture  
Dew Point 54 °F    
Average Humidity 58    
Maximum Humidity 86    
Minimum Humidity 29    
Precipitation  
Precipitation 0.00 in 0.12 in 0.01 in (2013)
Month to date precipitation 0.25 2.96  
Year to date precipitation 9.20 14.68  
Sea Level Pressure  
Sea Level Pressure 30.02 in    
Wind  
Wind Speed 7 mph (ENE)    
Max Wind Speed 15 mph    
Max Gust Speed 19 mph    
Visibility 10 miles    
Events      
T = Trace of Precipitation, MM = Missing Value Source: NWS Daily Summary

Daily Weather History Graph

Daily Weather History Graph

Search for Another Location

Airport or City:

Trip Planner

Search our weather history database for the weather conditions in past years. The results will help you decide how hot, cold, wet, or windy it might be!

Date:

Astronomy

Jul. 31, 2014 Rise Set
Actual Time 6:28 AM CDT 9:02 PM CDT
Civil Twilight 5:55 AM CDT 9:35 PM CDT
Nautical Twilight 5:14 AM CDT 10:15 PM CDT
Astronomical Twilight 4:28 AM CDT 11:01 PM CDT
Moon 11:06 AM CDT (7/31) 11:06 PM CDT (7/31)
Length of Visible Light 15h 39m
Length of Day
14h 34m
Waxing Crescent, 19% of the Moon is Illuminated
Jul 31
Waxing Crescent
Aug 3
First Quarter
Aug 10
Full
Aug 17
Last Quarter
Aug 25
New

Hourly Weather History & Observations

Time (CDT) Temp. Heat Index Dew Point Humidity Pressure Visibility Wind Dir Wind Speed Gust Speed Precip Events Conditions
2:53 AM 66.9 °F - 54.0 °F 63% 29.99 in 10.0 mi SSE 10.4 mph - N/A   Scattered Clouds
3:53 AM 66.0 °F - 54.0 °F 65% 29.99 in 10.0 mi South 3.5 mph - N/A   Clear
4:53 AM 60.1 °F - 53.1 °F 78% 30.00 in 10.0 mi WSW 6.9 mph - N/A   Clear
5:53 AM 57.0 °F - 53.1 °F 87% 30.01 in 10.0 mi Calm Calm - N/A   Clear
6:53 AM 55.0 °F - 51.1 °F 86% 30.03 in 10.0 mi West 4.6 mph - N/A   Clear
8:53 AM 64.9 °F - 55.0 °F 70% 30.05 in 10.0 mi NW 8.1 mph - N/A   Clear
9:53 AM 71.1 °F - 57.0 °F 61% 30.04 in 10.0 mi NNW 4.6 mph - N/A   Clear
10:53 AM 75.9 °F - 57.0 °F 52% 30.06 in 10.0 mi NNE 10.4 mph - N/A   Clear
11:53 AM 81.0 °F 81.0 °F 57.0 °F 44% 30.05 in 10.0 mi ENE 6.9 mph - N/A   Clear
12:53 PM 84.9 °F 83.3 °F 54.0 °F 34% 30.04 in 10.0 mi NNE 11.5 mph 17.3 mph N/A   Clear
1:53 PM 84.9 °F 83.2 °F 53.1 °F 33% 30.03 in 10.0 mi NE 11.5 mph 16.1 mph N/A   Scattered Clouds
2:53 PM 87.1 °F - 51.1 °F 29% 30.02 in 10.0 mi Calm Calm - N/A   Partly Cloudy
3:53 PM 87.1 °F - 51.1 °F 29% 30.01 in 10.0 mi Variable 4.6 mph - N/A   Mostly Cloudy
5:53 PM 87.1 °F - 51.1 °F 29% 30.00 in 10.0 mi ENE 8.1 mph - N/A   Scattered Clouds
6:53 PM 87.1 °F - 51.1 °F 29% 30.00 in 10.0 mi NNE 6.9 mph - N/A   Partly Cloudy
7:53 PM 82.9 °F 81.9 °F 54.0 °F 37% 29.99 in 10.0 mi East 8.1 mph - N/A   Clear
9:53 PM 71.1 °F - 55.9 °F 59% 30.02 in 10.0 mi ESE 6.9 mph - N/A   Clear
10:53 PM 70.0 °F - 57.0 °F 63% 30.04 in 10.0 mi SE 9.2 mph - N/A   Clear
11:53 PM 70.0 °F - 57.9 °F 65% 30.04 in 10.0 mi SSE 6.9 mph - N/A   Clear